Casa Grande, AZ

8:48 AM MST on October 19, 2017 (GMT -0700)
Casa Grande Municipal

Weather History for KCGZ - October, 2014

Change the Weather History Date:

Wednesday, October 1, 2014

  Actual Average Record
Temperature  
Mean Temperature 73 °F -  
Max Temperature 87 °F 91 °F 104 °F (2015)
Min Temperature 59 °F 63 °F 55 °F (1998)
Cooling Degree Days 8    
Growing Degree Days 23 (Base 50)    
Moisture  
Dew Point 42 °F    
Average Humidity 34    
Maximum Humidity 59    
Minimum Humidity 18    
Precipitation  
Precipitation 0.00 in - - ()
Sea Level Pressure  
Sea Level Pressure 29.82 in    
Wind  
Wind Speed 0 mph (NNW)    
Max Wind Speed 8 mph    
Max Gust Speed -    
Visibility 10 miles    
Events      
Averages and records for this station are not official NWS values.
T = Trace of Precipitation, MM = Missing Value Source: NWS Daily Summary

Daily Weather History Graph

Daily Weather History Graph

Search for Another Location

Airport or City:

Trip Planner

Search our weather history database for the weather conditions in past years. The results will help you decide how hot, cold, wet, or windy it might be!

Date:

Astronomy

Oct. 01, 2014 Rise Set
Actual Time 6:21 AM MST 6:11 PM MST
Civil Twilight 5:56 AM MST 6:36 PM MST
Nautical Twilight 5:28 AM MST 7:04 PM MST
Astronomical Twilight 4:59 AM MST 7:33 PM MST
Moon 1:12 PM MST (10/1) No Moon Set
Length of Visible Light 12h 39m
Length of Day
11h 50m
Waxing Crescent, 50% of the Moon is Illuminated
Oct 1
Waxing Crescent
Oct 1
First Quarter
Oct 8
Full
Oct 15
Last Quarter
Oct 23
New

Hourly Weather History & Observations

Time (MST) Temp. Dew Point Humidity Pressure Visibility Wind Dir Wind Speed Gust Speed Precip Events Conditions
12:15 AM 66.2 °F 46.4 °F 49% 29.87 in 10.0 mi Calm Calm - N/A   Clear
12:35 AM 64.4 °F 42.8 °F 45% 29.78 in 10.0 mi Calm Calm - N/A   Clear
12:55 AM 64.4 °F 48.2 °F 56% 29.86 in 10.0 mi Calm Calm - N/A   Clear
1:15 AM 64.4 °F 42.8 °F 45% 29.79 in 10.0 mi Calm Calm - N/A   Clear
1:35 AM 64.4 °F 41.0 °F 42% 29.79 in 10.0 mi Calm Calm - N/A   Clear
1:55 AM 62.6 °F 41.0 °F 45% 29.79 in 10.0 mi Calm Calm - N/A   Clear
2:15 AM 62.6 °F 41.0 °F 45% 29.79 in 10.0 mi Calm Calm - N/A   Clear
2:35 AM 60.8 °F 42.8 °F 52% 29.78 in 10.0 mi Calm Calm - N/A   Clear
2:55 AM 60.8 °F 42.8 °F 52% 29.78 in 10.0 mi Calm Calm - N/A   Clear
3:15 AM 60.8 °F 42.8 °F 52% 29.78 in 10.0 mi Calm Calm - N/A   Clear
3:35 AM 60.8 °F 42.8 °F 52% 29.78 in 10.0 mi Calm Calm - N/A   Clear
3:55 AM 60.8 °F 41.0 °F 48% 29.78 in 10.0 mi Calm Calm - N/A   Clear
4:15 AM 60.8 °F 41.0 °F 48% 29.79 in 10.0 mi Calm Calm - N/A   Clear
4:55 AM 59.0 °F 42.8 °F 55% 29.79 in 10.0 mi NE 6.9 mph - N/A   Clear
5:55 AM 60.8 °F 39.2 °F 45% 29.80 in 10.0 mi Calm Calm - N/A   Clear
6:15 AM 59.0 °F 41.0 °F 51% 29.81 in 10.0 mi Calm Calm - N/A   Clear
6:35 AM 59.0 °F 44.6 °F 59% 29.88 in 10.0 mi Calm Calm - N/A   Clear
6:55 AM 62.6 °F 41.0 °F 45% 29.82 in 10.0 mi Calm Calm - N/A   Clear
7:15 AM 62.6 °F 44.6 °F 52% 29.89 in 10.0 mi Calm Calm - N/A   Clear
7:35 AM 62.6 °F 42.8 °F 48% 29.89 in 10.0 mi Calm Calm - N/A   Clear
7:55 AM 66.2 °F 42.8 °F 43% 29.84 in 10.0 mi Calm Calm - N/A   Clear
8:15 AM 69.8 °F 42.8 °F 38% 29.84 in 10.0 mi Calm Calm - N/A   Clear
8:35 AM 71.6 °F 42.8 °F 35% 29.84 in 10.0 mi Calm Calm - N/A   Clear
8:55 AM 71.6 °F 44.6 °F 38% 29.85 in 10.0 mi Calm Calm - N/A   Clear
9:15 AM 75.2 °F 44.6 °F 34% 29.85 in 10.0 mi Calm Calm - N/A   Clear
9:35 AM 75.2 °F 44.6 °F 34% 29.85 in 10.0 mi Calm Calm - N/A   Clear
9:55 AM 78.8 °F 44.6 °F 30% 29.85 in 10.0 mi Calm Calm - N/A   Clear
10:15 AM 78.8 °F 44.6 °F 30% 29.85 in 10.0 mi Calm Calm - N/A   Clear
10:35 AM 80.6 °F 42.8 °F 26% 29.84 in 10.0 mi Calm Calm - N/A   Clear
10:55 AM 82.4 °F 42.8 °F 25% 29.84 in 10.0 mi Calm Calm - N/A   Clear
11:15 AM 82.4 °F 42.8 °F 25% 29.84 in 10.0 mi Calm Calm - N/A   Clear
11:35 AM 82.4 °F 42.8 °F 25% 29.83 in 10.0 mi Calm Calm - N/A   Clear
11:55 AM 82.4 °F 42.8 °F 25% 29.82 in 10.0 mi Calm Calm - N/A   Clear
12:15 PM 84.2 °F 41.0 °F 22% 29.82 in 10.0 mi Calm Calm - N/A   Clear
12:35 PM 84.2 °F 39.2 °F 20% 29.82 in 10.0 mi Calm Calm - N/A   Clear
12:55 PM 86.0 °F 41.0 °F 20% 29.80 in 10.0 mi Calm Calm - N/A   Clear
1:15 PM 87.8 °F 41.0 °F 19% 29.80 in 10.0 mi Calm Calm - N/A   Clear
1:35 PM 87.8 °F 41.0 °F 19% 29.79 in 10.0 mi Calm Calm - N/A   Clear
1:55 PM 87.8 °F 41.0 °F 19% 29.79 in 10.0 mi Calm Calm - N/A   Clear
2:15 PM 87.8 °F 42.8 °F 21% 29.79 in 10.0 mi NNW 8.1 mph - N/A   Clear
2:35 PM 87.8 °F 42.8 °F 21% 29.79 in 10.0 mi Calm Calm - N/A   Clear
2:55 PM 87.8 °F 41.0 °F 19% 29.79 in 10.0 mi Calm Calm - N/A   Clear
3:15 PM 87.8 °F 39.2 °F 18% 29.79 in 10.0 mi Calm Calm - N/A   Clear
3:35 PM 87.8 °F 39.2 °F 18% 29.79 in 10.0 mi Calm Calm - N/A   Clear
3:55 PM 87.8 °F 39.2 °F 18% 29.79 in 10.0 mi Calm Calm - N/A   Clear
4:15 PM 87.8 °F 39.2 °F 18% 29.79 in 10.0 mi Calm Calm - N/A   Clear
4:35 PM 87.8 °F 39.2 °F 18% 29.79 in 10.0 mi Calm Calm - N/A   Clear
4:55 PM 87.8 °F 39.2 °F 18% 29.79 in 10.0 mi NW 3.5 mph - N/A   Clear
5:15 PM 87.8 °F 39.2 °F 18% 29.80 in 10.0 mi NW 4.6 mph - N/A   Clear
5:35 PM 86.0 °F 37.4 °F 18% 29.80 in 10.0 mi Calm Calm - N/A   Clear
5:55 PM 84.2 °F 39.2 °F 20% 29.81 in 10.0 mi Calm Calm - N/A   Clear
6:15 PM 82.4 °F 39.2 °F 21% 29.82 in 10.0 mi Calm Calm - N/A   Clear
6:35 PM 80.6 °F 39.2 °F 23% 29.82 in 10.0 mi Calm Calm - N/A   Clear
6:55 PM 80.6 °F 39.2 °F 23% 29.82 in 10.0 mi Calm Calm - N/A   Clear
7:15 PM 78.8 °F 39.2 °F 24% 29.82 in 10.0 mi Calm Calm - N/A   Clear
7:35 PM 75.2 °F 39.2 °F 27% 29.83 in 10.0 mi Calm Calm - N/A   Clear
7:55 PM 75.2 °F 41.0 °F 29% 29.84 in 10.0 mi Calm Calm - N/A   Clear
8:15 PM 75.2 °F 41.0 °F 29% 29.84 in 10.0 mi Calm Calm - N/A   Clear
8:35 PM 73.4 °F 41.0 °F 31% 29.84 in 10.0 mi Calm Calm - N/A   Clear
8:55 PM 71.6 °F 42.8 °F 35% 29.85 in 10.0 mi Calm Calm - N/A   Clear
9:15 PM 73.4 °F 41.0 °F 31% 29.85 in 10.0 mi Calm Calm - N/A   Clear
9:35 PM 69.8 °F 42.8 °F 38% 29.85 in 10.0 mi Calm Calm - N/A   Clear
9:55 PM 69.8 °F 42.8 °F 38% 29.86 in 10.0 mi Calm Calm - N/A   Clear
10:15 PM 69.8 °F 42.8 °F 38% 29.86 in 10.0 mi Calm Calm - N/A   Clear
10:35 PM 68.0 °F 42.8 °F 40% 29.87 in 10.0 mi Calm Calm - N/A   Clear
10:55 PM 66.2 °F 42.8 °F 43% 29.87 in 10.0 mi Calm Calm - N/A   Clear
11:15 PM 66.2 °F 44.6 °F 46% 29.87 in 10.0 mi Calm Calm - N/A   Clear
11:35 PM 66.2 °F 44.6 °F 46% 29.87 in 10.0 mi Calm Calm - N/A   Clear
11:55 PM 66.2 °F 44.6 °F 46% 29.87 in 10.0 mi Calm Calm - N/A   Clear